When you browse on this site, cookies collect data to enhance your experience and personalize the content and advertising you see.
Visit our Privacy Policy to learn more. By continuing to use the site, you agree to this use of cookies and data.
  • In Romania
  • List of Countries
  • For 7 days
  • Water Temperature
  • Satellite Maps
  • Weather Map
  • Weather Widgets
  • user-avatar
    Login

    Hourly Weather Thimphu

    Today, 23 April, Tuesday

    Time Temperature Precipitation Wind Pressure Humidity
    00:00 +5°C° 0 mm 1 mps 522 mmHg 87%
    01:00 +5°C° 0.1 mm 1 mps 522 mmHg 85%
    02:00 +4°C° 0.1 mm 1 mps 521 mmHg 83%
    03:00 +4°C° 0.1 mm 1 mps 521 mmHg 81%
    04:00 +4°C° 0.1 mm 1 mps 521 mmHg 79%
    05:00 +4°C° 0.1 mm 1 mps 521 mmHg 78%
    06:00 +4°C° 0.1 mm 1 mps 522 mmHg 76%
    07:00 +7°C° 0 mm 1 mps 524 mmHg 69%
    08:00 +10°C° 0 mm 1 mps 526 mmHg 63%
    09:00 +12°C° 0 mm 1 mps 527 mmHg 56%
    10:00 +13°C° 0.2 mm 2 mps 527 mmHg 58%
    11:00 +13°C° 0.2 mm 2 mps 528 mmHg 59%
    12:00 +14°C° 0.2 mm 2 mps 528 mmHg 61%
    13:00 +13°C° 0.5 mm 2 mps 527 mmHg 62%
    14:00 +13°C° 0.5 mm 2 mps 527 mmHg 63%
    15:00 +13°C° 0.5 mm 2 mps 526 mmHg 64%
    16:00 +12°C° 0.6 mm 2 mps 525 mmHg 71%
    17:00 +11°C° 0.6 mm 1 mps 525 mmHg 77%
    18:00 +10°C° 0.6 mm 1 mps 524 mmHg 83%
    19:00 +9°C° 0.4 mm 1 mps 524 mmHg 86%
    20:00 +7°C° 0.4 mm 0 mps 524 mmHg 89%
    21:00 +6°C° 0.4 mm 0 mps 524 mmHg 92%
    22:00 +6°C° 0.4 mm 0 mps 524 mmHg 90%
    23:00 +6°C° 0.4 mm 0 mps 524 mmHg 88%

    Tomorrow, 24 April, Wednesday

    Time Temperature Precipitation Wind Pressure Humidity
    00:00 +7°C° 0.4 mm 1 mps 525 mmHg 85%
    01:00 +7°C° 0.2 mm 1 mps 524 mmHg 84%
    02:00 +6°C° 0.2 mm 1 mps 524 mmHg 82%
    03:00 +6°C° 0.2 mm 1 mps 523 mmHg 81%
    04:00 +6°C° 0.1 mm 1 mps 523 mmHg 78%
    05:00 +6°C° 0.1 mm 1 mps 523 mmHg 75%
    06:00 +5°C° 0.1 mm 1 mps 524 mmHg 73%
    07:00 +9°C° 0 mm 1 mps 526 mmHg 66%
    08:00 +12°C° 0 mm 1 mps 528 mmHg 59%
    09:00 +15°C° 0 mm 1 mps 530 mmHg 52%
    10:00 +15°C° 0 mm 2 mps 530 mmHg 53%
    11:00 +16°C° 0 mm 2 mps 530 mmHg 54%
    12:00 +16°C° 0 mm 2 mps 530 mmHg 56%
    13:00 +16°C° 0.4 mm 2 mps 530 mmHg 57%
    14:00 +16°C° 0.4 mm 2 mps 529 mmHg 58%
    15:00 +16°C° 0.4 mm 2 mps 529 mmHg 59%
    16:00 +15°C° 0.6 mm 2 mps 528 mmHg 65%
    17:00 +13°C° 0.6 mm 2 mps 527 mmHg 72%
    18:00 +12°C° 0.6 mm 1 mps 526 mmHg 78%
    19:00 +11°C° 0.4 mm 1 mps 526 mmHg 82%
    20:00 +10°C° 0.4 mm 1 mps 526 mmHg 86%
    21:00 +8°C° 0.4 mm 0 mps 526 mmHg 90%
    22:00 +8°C° 0.1 mm 1 mps 525 mmHg 88%
    23:00 +8°C° 0.1 mm 1 mps 525 mmHg 87%

    Day after tomorrow, 25 April, Thursday

    Time Temperature Precipitation Wind Pressure Humidity
    00:00 +8°C° 0.1 mm 1 mps 525 mmHg 86%
    01:00 +7°C° 0.1 mm 1 mps 525 mmHg 83%
    02:00 +7°C° 0.1 mm 1 mps 524 mmHg 81%
    03:00 +7°C° 0.1 mm 1 mps 524 mmHg 78%
    04:00 +7°C° 0 mm 1 mps 524 mmHg 76%
    05:00 +7°C° 0 mm 1 mps 524 mmHg 74%
    06:00 +7°C° 0 mm 1 mps 524 mmHg 71%
    07:00 +10°C° 0 mm 1 mps 526 mmHg 64%
    08:00 +13°C° 0 mm 1 mps 528 mmHg 57%
    09:00 +16°C° 0 mm 1 mps 531 mmHg 50%
    10:00 +16°C° 0.1 mm 1 mps 530 mmHg 52%
    11:00 +16°C° 0.1 mm 2 mps 530 mmHg 53%
    12:00 +17°C° 0.1 mm 2 mps 530 mmHg 55%
    13:00 +17°C° 0.6 mm 2 mps 529 mmHg 56%
    14:00 +16°C° 0.6 mm 2 mps 529 mmHg 58%
    15:00 +16°C° 0.6 mm 2 mps 528 mmHg 59%
    16:00 +15°C° 0.8 mm 2 mps 527 mmHg 66%
    17:00 +14°C° 0.8 mm 1 mps 526 mmHg 73%
    18:00 +12°C° 0.8 mm 1 mps 526 mmHg 79%
    19:00 +11°C° 0.5 mm 1 mps 526 mmHg 83%
    20:00 +10°C° 0.5 mm 1 mps 526 mmHg 86%
    21:00 +8°C° 0.5 mm 0 mps 526 mmHg 89%
    22:00 +8°C° 0.1 mm 0 mps 525 mmHg 89%
    23:00 +8°C° 0.1 mm 0 mps 525 mmHg 89%

    26 April, Friday

    Time Temperature Precipitation Wind Pressure Humidity
    00:00 +9°C° 0.1 mm 1 mps 525 mmHg 88%
    01:00 +8°C° 0 mm 1 mps 524 mmHg 87%
    02:00 +8°C° 0 mm 1 mps 524 mmHg 86%
    03:00 +8°C° 0 mm 1 mps 523 mmHg 86%
    04:00 +8°C° 0 mm 1 mps 523 mmHg 85%
    05:00 +8°C° 0 mm 1 mps 523 mmHg 84%
    06:00 +8°C° 0 mm 1 mps 524 mmHg 83%
    07:00 +10°C° 0 mm 1 mps 525 mmHg 76%
    08:00 +13°C° 0 mm 1 mps 527 mmHg 69%
    09:00 +15°C° 0 mm 1 mps 529 mmHg 62%
    10:00 +16°C° 0.2 mm 2 mps 529 mmHg 62%
    11:00 +16°C° 0.2 mm 2 mps 529 mmHg 63%
    12:00 +16°C° 0.2 mm 2 mps 529 mmHg 63%
    13:00 +16°C° 0.6 mm 2 mps 528 mmHg 63%
    14:00 +16°C° 0.6 mm 2 mps 527 mmHg 64%
    15:00 +16°C° 0.6 mm 2 mps 527 mmHg 65%
    16:00 +15°C° 0.6 mm 2 mps 526 mmHg 71%
    17:00 +14°C° 0.6 mm 1 mps 526 mmHg 77%
    18:00 +12°C° 0.6 mm 1 mps 525 mmHg 83%
    19:00 +12°C° 0.4 mm 1 mps 525 mmHg 86%
    20:00 +10°C° 0.4 mm 0 mps 525 mmHg 89%
    21:00 +9°C° 0.4 mm 0 mps 525 mmHg 92%
    22:00 +9°C° 0.2 mm 0 mps 525 mmHg 91%
    23:00 +9°C° 0.2 mm 0 mps 525 mmHg 90%

    27 April, Saturday

    Time Temperature Precipitation Wind Pressure Humidity
    00:00 +10°C° 0.2 mm 1 mps 525 mmHg 89%
    01:00 +10°C° 0.1 mm 1 mps 524 mmHg 89%
    02:00 +8°C° 0.1 mm 0 mps 524 mmHg 88%
    03:00 +8°C° 0.1 mm 0 mps 523 mmHg 87%
    04:00 +8°C° 0.1 mm 0 mps 524 mmHg 87%
    05:00 +8°C° 0.1 mm 0 mps 524 mmHg 86%
    06:00 +8°C° 0.1 mm 0 mps 524 mmHg 86%
    07:00 +11°C° 0.2 mm 1 mps 525 mmHg 81%
    08:00 +12°C° 0.2 mm 1 mps 526 mmHg 76%
    09:00 +14°C° 0.2 mm 1 mps 528 mmHg 71%
    10:00 +14°C° 0.5 mm 1 mps 527 mmHg 71%
    11:00 +14°C° 0.5 mm 2 mps 527 mmHg 71%
    12:00 +14°C° 0.5 mm 2 mps 527 mmHg 71%
    13:00 +14°C° 0.5 mm 2 mps 526 mmHg 72%
    14:00 +15°C° 0.5 mm 2 mps 526 mmHg 72%
    15:00 +15°C° 0.5 mm 2 mps 525 mmHg 72%
    16:00 +14°C° 0.2 mm 1 mps 525 mmHg 76%
    17:00 +13°C° 0.2 mm 1 mps 525 mmHg 80%
    18:00 +12°C° 0.2 mm 1 mps 524 mmHg 84%
    19:00 +12°C° 0.1 mm 1 mps 524 mmHg 87%
    20:00 +11°C° 0.1 mm 1 mps 524 mmHg 89%
    21:00 +9°C° 0.1 mm 0 mps 524 mmHg 92%
    22:00 +10°C° 0.1 mm 1 mps 524 mmHg 91%
    23:00 +10°C° 0.1 mm 1 mps 524 mmHg 90%

    28 April, Sunday

    Time Temperature Precipitation Wind Pressure Humidity
    00:00 +9°C° 0.1 mm 1 mps 524 mmHg 89%
    01:00 +9°C° 0.1 mm 1 mps 523 mmHg 89%
    02:00 +9°C° 0.1 mm 1 mps 523 mmHg 88%
    03:00 +9°C° 0.1 mm 1 mps 523 mmHg 87%
    04:00 +9°C° 0.1 mm 1 mps 523 mmHg 87%
    05:00 +9°C° 0.1 mm 1 mps 523 mmHg 87%
    06:00 +8°C° 0.1 mm 0 mps 523 mmHg 87%
    07:00 +11°C° 0.1 mm 1 mps 525 mmHg 80%
    08:00 +13°C° 0.1 mm 1 mps 526 mmHg 73%
    09:00 +15°C° 0.1 mm 1 mps 528 mmHg 66%
    10:00 +16°C° 0.2 mm 1 mps 528 mmHg 64%
    11:00 +16°C° 0.2 mm 2 mps 528 mmHg 63%
    12:00 +17°C° 0.2 mm 2 mps 528 mmHg 61%
    13:00 +17°C° 0.4 mm 2 mps 527 mmHg 62%
    14:00 +17°C° 0.4 mm 2 mps 527 mmHg 62%
    15:00 +17°C° 0.4 mm 2 mps 526 mmHg 63%
    16:00 +16°C° 0.5 mm 2 mps 526 mmHg 70%
    17:00 +14°C° 0.5 mm 2 mps 525 mmHg 76%
    18:00 +13°C° 0.5 mm 1 mps 524 mmHg 83%
    19:00 +12°C° 0.2 mm 1 mps 524 mmHg 87%
    20:00 +11°C° 0.2 mm 1 mps 525 mmHg 91%
    21:00 +11°C° 0.2 mm 1 mps 525 mmHg 94%
    22:00 +10°C° 0.1 mm 1 mps 524 mmHg 94%
    23:00 +10°C° 0.1 mm 1 mps 524 mmHg 94%
    Show more